This is the latest recevied weather packets stored in our database for station/object N6DZK. If no packets are shown the sender has not sent any weather packets the latest 10 day(s).
| Time | Temp. | Humidity | Pressure | Rain* | Wind** | Luminosity | Snow |
|---|---|---|---|---|---|---|---|
| 1777865516 | 12.22° C | 73% | 1013.9 hPa | 0 mm | - | 0 W/m² | - |
| 1777865213 | 12.22° C | 73% | 1013.9 hPa | 0 mm | - | 0 W/m² | - |
| 1777864910 | 12.22° C | 72% | 1013.7 hPa | 0 mm | - | 0 W/m² | - |
| 1777864607 | 12.22° C | 72% | 1013.7 hPa | 0 mm | - | 0 W/m² | - |
| 1777864303 | 12.78° C | 72% | 1013.7 hPa | 0 mm | - | 0 W/m² | - |
| 1777864000 | 12.78° C | 71% | 1013.5 hPa | 0 mm | - | 1 W/m² | - |
| 1777863697 | 12.78° C | 71% | 1013.4 hPa | 0 mm | - | 2 W/m² | - |
| 1777863394 | 13.33° C | 70% | 1013.3 hPa | 0 mm | - | 4 W/m² | - |
| 1777863091 | 13.33° C | 69% | 1013.5 hPa | 0 mm | - | 7 W/m² | - |
| 1777862788 | 13.89° C | 68% | 1013.2 hPa | 0 mm | - | 11 W/m² | - |
| 1777862485 | 13.89° C | 68% | 1013.3 hPa | 0 mm | - | 15 W/m² | - |
| 1777862181 | 13.89° C | 67% | 1013.2 hPa | 0 mm | - | 19 W/m² | - |
| 1777861877 | 13.89° C | 67% | 1013.3 hPa | 0 mm | - | 24 W/m² | - |
| 1777861574 | 14.44° C | 67% | 1013.2 hPa | 0 mm | - | 27 W/m² | - |
| 1777861269 | 14.44° C | 66% | 1013.1 hPa | 0 mm | - | 31 W/m² | - |
| 1777860968 | 14.44° C | 66% | 1013 hPa | 0 mm | - | 36 W/m² | - |
| 1777860664 | 15° C | 65% | 1013.2 hPa | 0 mm | - | 39 W/m² | - |
| 1777860361 | 15° C | 63% | 1013.1 hPa | 0 mm | - | 44 W/m² | - |
| 1777860057 | 15.56° C | 62% | 1013.2 hPa | 0 mm | - | 50 W/m² | - |
| 1777859754 | 15.56° C | 61% | 1013.1 hPa | 0 mm | - | 53 W/m² | - |
| 1777859450 | 15.56° C | 59% | 1013.1 hPa | 0 mm | - | 56 W/m² | - |
| 1777859146 | 16.11° C | 58% | 1013.1 hPa | 0 mm | - | 55 W/m² | - |
| 1777858844 | 16.67° C | 56% | 1013.1 hPa | 0 mm | - | 95 W/m² | - |
| 1777858541 | 17.22° C | 54% | 1013.1 hPa | 0 mm | - | 94 W/m² | - |
| 1777858238 | 17.78° C | 52% | 1013 hPa | 0 mm | - | 116 W/m² | - |
* Rain latest hour (hover to see other rain measurements)
** Current wind speed in m/s (hover to see current wind gust speed)